sat.trackr.live / text

‹ back to catalog

LEMUR-2-DELOITTE-1

NORAD 63259 · 2025-052BB

PAYLOAD ACTIVE UNKNOWN

§ Identity

Operator
Country
US
Launch date
2025-03-15
Launch site
AFWTR
Launch vehicle
Mass (kg)
RCS (m²)

Purposes: earth_obs

External: N2YO · Heavens-Above · Gunter

§ Orbital elements

Epoch: 2026-09-19T23:26:58.478208Z

Period
96.12 min
Inclination
97.6766°
Eccentricity
0.0002804
Mean motion
14.98145029 rev/d
Perigee alt
570.7 km
Apogee alt
574.6 km
Semi-major
6,950.8 km
B*
2.2986e-4
RAAN
154.2477°
Arg perigee
115.4115°
Mean anomaly
244.7398°
Rev number
8,288

§ Raw data

LEMUR-2-DELOITTE-11 63259U 25052BB  26262.97706572  .00002666  00000+0  22986-3 0  99992 63259  97.6766 154.2477 0002804 115.4115 244.7398 14.98145029 82886

JSON: /api/v1/satellites/63259 · /tle

For live sub-satellite position, see the globe view (requires WebGL).

§ Visibility from observer

Set your observer location to see the next 7 days of passes ≥ 10°. The values pass through the URL so the page stays shareable.

No JS? Fill the form by hand. The geolocation button needs JavaScript.